FW3227 Weather Reports


Display with metric or nautical units.
time (UTC)temp
F
wind
direction
speed
MPH
gust
MPH
rain 1hr
in
rain 24hr
in
rain mn
in
humidity
%
barometer
mb
20260904223553 85 141 4.0 15.0 0.00 0.00 0.00 25 1001.3
20260904223056 86 139 4.0 15.0 0.00 0.00 0.00 25 1001.3
20260904222554 86 141 4.0 18.0 0.00 0.00 0.00 25 1001.4
20260904222052 87 129 4.0 18.0 0.00 0.00 0.00 24 1001.4
20260904221555 87 138 3.0 12.0 0.00 0.00 0.00 24 1001.3
20260904221052 87 137 2.0 10.0 0.00 0.00 0.00 25 1001.3
20260904220552 86 143 2.0 12.0 0.00 0.00 0.00 25 1001.4
20260904220106 87 144 3.0 12.0 0.00 0.00 0.00 23 1001.4
20260904215552 87 133 5.0 11.0 0.00 0.00 0.00 23 1001.5
20260904215055 88 124 2.0 13.0 0.00 0.00 0.00 23 1001.5
20260904214552 88 137 1.0 13.0 0.00 0.00 0.00 24 1001.6
20260904214050 88 140 2.0 14.0 0.00 0.00 0.00 24 1001.7
20260904213549 88 140 5.0 14.0 0.00 0.00 0.00 23 1001.7
20260904213050 88 139 5.0 17.0 0.00 0.00 0.00 23 1001.8
20260904212552 87 138 8.0 17.0 0.00 0.00 0.00 23 1001.9
20260904212050 87 143 4.0 12.0 0.00 0.00 0.00 23 1001.9
20260904211555 87 142 2.0 10.0 0.00 0.00 0.00 23 1001.8
20260904211049 88 146 0.0 8.0 0.00 0.00 0.00 23 1002.0
20260904210549 88 147 0.0 11.0 0.00 0.00 0.00 21 1002.0
20260904210057 89 147 5.0 16.0 0.00 0.00 0.00 20 1002.1
20260904205549 89 147 5.0 16.0 0.00 0.00 0.00 21 1002.1
20260904205048 89 157 2.0 10.0 0.00 0.00 0.00 22 1002.1
20260904204547 89 159 0.0 12.0 0.00 0.00 0.00 20 1002.2
20260904204047 89 160 1.0 12.0 0.00 0.00 0.00 20 1002.3
20260904203547 90 168 2.0 9.0 0.00 0.00 0.00 20 1002.4
20260904203046 90 218 0.0 3.0 0.00 0.00 0.00 19 1002.5
20260904202545 90 217 0.0 0.0 0.00 0.00 0.00 21 1002.5
20260904202045 90 272 0.0 4.0 0.00 0.00 0.00 22 1002.5
20260904201548 90 314 0.0 4.0 0.00 0.00 0.00 20 1002.5
20260904201044 90 192 0.0 2.0 0.00 0.00 0.00 19 1002.5
20260904200545 90 147 0.0 4.0 0.00 0.00 0.00 20 1002.6
20260904195543 90 148 0.0 9.0 0.00 0.00 0.00 20 1002.8
20260904195043 90 148 4.0 9.0 0.00 0.00 0.00 19 1002.9
20260904194622 90 148 2.0 8.0 0.00 0.00 0.00 18 1002.9
20260904194041 90 147 0.0 11.0 0.00 0.00 0.00 20 1002.9
20260904193542 89 147 0.0 12.0 0.00 0.00 0.00 22 1003.0
20260904193044 89 148 3.0 14.0 0.00 0.00 0.00 20 1003.0
20260904192540 90 143 4.0 11.0 0.00 0.00 0.00 19 1003.0
20260904192041 90 225 0.0 0.0 0.00 0.00 0.00 19 1003.1
20260904191540 91 227 0.0 0.0 0.00 0.00 0.00 19 1003.2
20260904191042 90 228 0.0 0.0 0.00 0.00 0.00 19 1003.3
20260904190538 90 228 0.0 0.0 0.00 0.00 0.00 20 1003.3
20260904190046 90 228 0.0 0.0 0.00 0.00 0.00 18 1003.4
20260904185536 90 228 0.0 0.0 0.00 0.00 0.00 20 1003.4
20260904185037 90 228 0.0 0.0 0.00 0.00 0.00 18 1003.4
20260904184535 90 228 0.0 0.0 0.00 0.00 0.00 19 1003.5
20260904184035 90 228 0.0 0.0 0.00 0.00 0.00 19 1003.5
20260904183535 90 228 0.0 0.0 0.00 0.00 0.00 22 1003.7
20260904183034 89 230 0.0 11.0 0.00 0.00 0.00 21 1003.7
20260904182536 89 230 0.0 11.0 0.00 0.00 0.00 20 1003.8
20260904182032 89 142 0.0 0.0 0.00 0.00 0.00 19 1003.8
20260904181536 89 142 0.0 0.0 0.00 0.00 0.00 21 1003.9
20260904181031 89 142 0.0 0.0 0.00 0.00 0.00 21 1003.9
20260904180530 89 142 0.0 0.0 0.00 0.00 0.00 19 1004.1
20260904180030 88 142 0.0 0.0 0.00 0.00 0.00 19 1004.1
20260904175530 88 142 0.0 0.0 0.00 0.00 0.00 20 1004.1
20260904175028 88 142 0.0 0.0 0.00 0.00 0.00 22 1004.2
20260904174526 88 142 0.0 0.0 0.00 0.00 0.00 19 1004.2
20260904174024 87 142 0.0 0.0 0.00 0.00 0.00 21 1004.2
20260904173523 87 141 0.0 0.0 0.00 0.00 0.00 19 1004.2
20260904173030 87 5 0.0 0.0 0.00 0.00 0.00 22 1004.3
20260904172520 86 5 0.0 0.0 0.00 0.00 0.00 21 1004.2
20260904172019 86 5 0.0 0.0 0.00 0.00 0.00 22 1004.3
20260904171525 86 5 0.0 0.0 0.00 0.00 0.00 20 1004.3
20260904171017 86 356 0.0 0.0 0.00 0.00 0.00 20 1004.2
20260904170518 86 356 0.0 0.0 0.00 0.00 0.00 19 1004.3
20260904170016 86 356 0.0 0.0 0.00 0.00 0.00 22 1004.3
20260904165515 85 356 0.0 0.0 0.00 0.00 0.00 22 1004.3
20260904165014 85 360 0.0 0.0 0.00 0.00 0.00 21 1004.3
20260904164513 85 360 0.0 0.0 0.00 0.00 0.00 21 1004.3
20260904164014 84 360 0.0 0.0 0.00 0.00 0.00 23 1004.3
20260904163509 84 360 0.0 0.0 0.00 0.00 0.00 22 1004.4
20260904163010 84 360 0.0 0.0 0.00 0.00 0.00 24 1004.3
20260904162508 83 1 0.0 0.0 0.00 0.00 0.00 26 1004.4
20260904162009 83 1 0.0 0.0 0.00 0.00 0.00 29 1004.4
20260904161504 82 3 0.0 0.0 0.00 0.00 0.00 25 1004.4
20260904161003 82 3 0.0 0.0 0.00 0.00 0.00 26 1004.5
20260904160502 81 3 0.0 0.0 0.00 0.00 0.00 26 1004.5
20260904160103 81 3 0.0 0.0 0.00 0.00 0.00 27 1004.5
20260904155558 80 3 0.0 0.0 0.00 0.00 0.00 26 1004.6
20260904155058 80 3 0.0 0.0 0.00 0.00 0.00 29 1004.6
20260904154611 79 3 0.0 0.0 0.00 0.00 0.00 29 1004.6
20260904154056 79 3 0.0 0.0 0.00 0.00 0.00 30 1004.5
20260904153553 78 3 0.0 0.0 0.00 0.00 0.00 31 1004.6
20260904153053 78 3 0.0 0.0 0.00 0.00 0.00 32 1004.6
20260904152550 78 3 0.0 0.0 0.00 0.00 0.00 32 1004.6
20260904152048 77 3 0.0 0.0 0.00 0.00 0.00 30 1004.5
20260904151548 77 3 0.0 0.0 0.00 0.00 0.00 30 1004.5
20260904151045 76 3 0.0 0.0 0.00 0.00 0.00 34 1004.5
20260904150548 75 3 0.0 0.0 0.00 0.00 0.00 34 1004.5
20260904150042 75 3 0.0 0.0 0.00 0.00 0.00 34 1004.5
20260904145541 74 3 0.0 0.0 0.00 0.00 0.00 34 1004.5
20260904145040 74 3 0.0 0.0 0.00 0.00 0.00 37 1004.5
20260904144539 73 4 0.0 0.0 0.00 0.00 0.00 37 1004.5
20260904144040 72 4 0.0 0.0 0.00 0.00 0.00 42 1004.5
20260904143535 71 4 0.0 0.0 0.00 0.00 0.00 43 1004.6
20260904143034 70 4 0.0 0.0 0.00 0.00 0.00 46 1004.6
20260904142538 70 48 0.0 0.0 0.00 0.00 0.00 51 1004.5
20260904142030 69 48 0.0 0.0 0.00 0.00 0.00 48 1004.5
20260904141540 68 48 0.0 0.0 0.00 0.00 0.00 49 1004.5
20260904141031 67 48 0.0 0.0 0.00 0.00 0.00 50 1004.4
20260904140526 66 48 0.0 0.0 0.00 0.00 0.00 50 1004.4
20260904140025 65 48 0.0 0.0 0.00 0.00 0.00 54 1004.5
20260904135524 63 48 0.0 0.0 0.00 0.00 0.00 57 1004.5
20260904135025 62 48 0.0 0.0 0.00 0.00 0.00 59 1004.5
20260904134521 60 48 0.0 0.0 0.00 0.00 0.00 61 1004.6
20260904134019 58 48 0.0 0.0 0.00 0.00 0.00 65 1004.5
20260904133517 57 48 0.0 0.0 0.00 0.00 0.00 66 1004.4
20260904133020 56 48 0.0 0.0 0.00 0.00 0.00 69 1004.4
20260904132515 55 48 0.0 0.0 0.00 0.00 0.00 68 1004.3
20260904132014 54 49 0.0 0.0 0.00 0.00 0.00 71 1004.1
20260904131513 53 49 0.0 0.0 0.00 0.00 0.00 72 1004.0
20260904131011 52 202 0.0 0.0 0.00 0.00 0.00 72 1004.0
20260904130509 52 202 0.0 0.0 0.00 0.00 0.00 70 1003.9
20260904130008 51 202 0.0 0.0 0.00 0.00 0.00 70 1003.9
20260904125507 51 202 0.0 0.0 0.00 0.00 0.00 71 1003.8
20260904125005 51 202 0.0 0.0 0.00 0.00 0.00 71 1003.8
20260904124503 51 202 0.0 0.0 0.00 0.00 0.00 70 1003.7
20260904124002 51 202 0.0 0.0 0.00 0.00 0.00 71 1003.7
20260904123503 51 202 0.0 0.0 0.00 0.00 0.00 71 1003.7
20260904123118 51 202 0.0 0.0 0.00 0.00 0.00 71 1003.7
20260904122600 52 202 0.0 0.0 0.00 0.00 0.00 71 1003.6
20260904122503 51 202 0.0 0.0 0.00 0.00 0.00 71 1003.6
20260904122101 52 202 0.0 0.0 0.00 0.00 0.00 71 1003.6
20260904121600 52 202 0.0 0.0 0.00 0.00 0.00 71 1003.5
20260904121058 52 202 0.0 0.0 0.00 0.00 0.00 71 1003.4
20260904120558 52 202 0.0 0.0 0.00 0.00 0.00 71 1003.4
20260904120059 52 202 0.0 0.0 0.00 0.00 0.00 71 1003.3
20260904115557 52 202 0.0 0.0 0.00 0.00 0.00 72 1003.3
20260904115056 52 202 0.0 0.0 0.00 0.00 0.00 72 1003.1
20260904114556 52 202 0.0 0.0 0.00 0.00 0.00 72 1003.0
20260904114055 52 202 0.0 0.0 0.00 0.00 0.00 72 1003.0
20260904113554 52 202 0.0 0.0 0.00 0.00 0.00 73 1003.0
20260904113054 52 202 0.0 0.0 0.00 0.00 0.00 73 1002.7
20260904112553 52 202 0.0 0.0 0.00 0.00 0.00 72 1002.6
20260904112056 52 202 0.0 0.0 0.00 0.00 0.00 72 1002.8
20260904111551 52 202 0.0 0.0 0.00 0.00 0.00 72 1002.7
20260904111050 53 202 0.0 0.0 0.00 0.00 0.00 72 1002.7
20260904110552 53 202 0.0 0.0 0.00 0.00 0.00 71 1002.8
20260904110048 53 202 0.0 0.0 0.00 0.00 0.00 70 1002.7
20260904105547 54 202 0.0 0.0 0.00 0.00 0.00 70 1002.7
20260904105046 54 202 0.0 0.0 0.00 0.00 0.00 70 1002.6
20260904104544 54 202 0.0 0.0 0.00 0.00 0.00 69 1002.4
20260904104046 54 202 0.0 0.0 0.00 0.00 0.00 69 1002.3
20260904103542 55 202 0.0 0.0 0.00 0.00 0.00 67 1002.2
20260904103048 55 202 0.0 0.0 0.00 0.00 0.00 66 1002.1
20260904102539 56 202 0.0 0.0 0.00 0.00 0.00 67 1002.0
20260904102037 56 202 0.0 0.0 0.00 0.00 0.00 65 1002.0
20260904101536 56 202 0.0 0.0 0.00 0.00 0.00 66 1001.8
20260904101035 56 202 0.0 0.0 0.00 0.00 0.00 65 1001.7
20260904100535 57 202 0.0 0.0 0.00 0.00 0.00 65 1001.8
20260904100034 57 202 0.0 0.0 0.00 0.00 0.00 64 1001.8
20260904095533 57 202 0.0 0.0 0.00 0.00 0.00 64 1001.8
20260904095031 58 202 0.0 0.0 0.00 0.00 0.00 63 1001.7
20260904094530 58 202 0.0 0.0 0.00 0.00 0.00 63 1001.6
20260904094029 58 202 0.0 0.0 0.00 0.00 0.00 63 1001.5
20260904093529 58 202 0.0 0.0 0.00 0.00 0.00 62 1001.5
20260904093026 59 202 0.0 0.0 0.00 0.00 0.00 61 1001.4
20260904092528 59 202 0.0 0.0 0.00 0.00 0.00 61 1001.4
20260904092024 59 202 0.0 0.0 0.00 0.00 0.00 60 1001.3
20260904091524 60 202 0.0 0.0 0.00 0.00 0.00 59 1001.3
20260904091022 60 202 0.0 0.0 0.00 0.00 0.00 59 1001.2
20260904090521 61 202 0.0 0.0 0.00 0.00 0.00 58 1001.2
20260904090020 61 202 0.0 0.0 0.00 0.00 0.00 57 1001.3
20260904085519 62 202 0.0 0.0 0.00 0.00 0.00 57 1001.2
20260904085018 62 202 0.0 0.0 0.00 0.00 0.00 56 1001.3
20260904084517 62 202 0.0 0.0 0.00 0.00 0.00 55 1001.3
20260904084018 63 202 0.0 0.0 0.00 0.00 0.00 55 1001.2
20260904083513 63 201 0.0 0.0 0.00 0.00 0.00 54 1001.3
20260904083016 63 201 0.0 0.0 0.00 0.00 0.00 54 1001.3
20260904082512 64 202 0.0 0.0 0.00 0.00 0.00 53 1001.4
20260904082015 64 201 0.0 0.0 0.00 0.00 0.00 53 1001.3
20260904081515 64 202 0.0 0.0 0.00 0.00 0.00 52 1001.3
20260904081011 64 202 0.0 0.0 0.00 0.00 0.00 53 1001.3
20260904080511 64 202 0.0 0.0 0.00 0.00 0.00 53 1001.1
20260904080011 64 201 0.0 0.0 0.00 0.00 0.00 52 1001.1
20260904075510 64 201 0.0 1.0 0.00 0.00 0.00 52 1001.1
20260904075011 64 232 0.0 0.0 0.00 0.00 0.00 52 1001.1
20260904074521 64 232 0.0 0.0 0.00 0.00 0.00 52 1001.2
20260904074008 64 232 0.0 0.0 0.00 0.00 0.00 52 1001.2
20260904073513 64 232 0.0 0.0 0.00 0.00 0.00 52 1001.3
20260904073008 64 232 0.0 0.0 0.00 0.00 0.00 52 1001.2
20260904072508 64 233 0.0 0.0 0.00 0.00 0.00 51 1001.4
20260904072006 64 233 0.0 0.0 0.00 0.00 0.00 51 1001.5
20260904071506 64 233 0.0 0.0 0.00 0.00 0.00 52 1001.7
20260904071008 64 233 0.0 0.0 0.00 0.00 0.00 50 1001.7
20260904070505 64 233 0.0 0.0 0.00 0.00 0.00 50 1001.7
20260904070004 64 233 0.0 0.0 0.00 0.00 0.00 50 1001.7
20260904065502 65 236 0.0 0.0 0.00 0.00 0.00 49 1001.6
20260904065001 65 236 0.0 0.0 0.00 0.00 0.00 49 1001.7
20260904064620 66 236 0.0 0.0 0.00 0.00 0.00 48 1001.7
20260904064102 66 236 0.0 0.0 0.00 0.00 0.00 47 1001.7
20260904063557 67 236 0.0 0.0 0.00 0.00 0.00 46 1001.7
20260904063057 68 236 0.0 0.0 0.00 0.00 0.00 45 1001.7
20260904062559 69 236 0.0 0.0 0.00 0.00 0.00 44 1001.7
20260904062052 69 236 0.0 0.0 0.00 0.00 0.00 43 1001.7
20260904061553 70 236 0.0 0.0 0.00 0.00 0.00 42 1001.8
20260904061053 71 236 0.0 0.0 0.00 0.00 0.00 41 1001.8
20260904060551 71 236 0.0 0.0 0.00 0.00 0.00 40 1001.8
20260904060049 71 236 0.0 0.0 0.00 0.00 0.00 40 1001.9
20260904055649 71 236 0.0 0.0 0.00 0.00 0.00 40 1001.9
20260904055047 72 236 0.0 0.0 0.00 0.00 0.00 39 1001.9
20260904054547 72 235 0.0 0.0 0.00 0.00 0.00 38 1002.0
20260904054047 72 235 0.0 6.0 0.00 0.00 0.00 38 1002.0
20260904053546 72 240 0.0 6.0 0.00 0.00 0.00 37 1002.1
20260904053046 72 237 0.0 8.0 0.00 0.00 0.00 37 1002.0
20260904052549 73 220 0.0 8.0 0.00 0.00 0.00 36 1002.0
20260904052046 73 195 0.0 0.0 0.00 0.00 0.00 36 1002.1
20260904051547 73 195 0.0 0.0 0.00 0.00 0.00 35 1002.2
20260904051045 73 194 0.0 0.0 0.00 0.00 0.00 35 1002.3
20260904050546 74 194 0.0 0.0 0.00 0.00 0.00 34 1002.4
20260904050052 74 194 0.0 0.0 0.00 0.00 0.00 34 1002.4
20260904045545 74 193 0.0 0.0 0.00 0.00 0.00 33 1002.5
20260904045045 74 193 0.0 4.0 0.00 0.00 0.00 33 1002.5
20260904044553 74 233 0.0 4.0 0.00 0.00 0.00 32 1002.8
20260904044044 74 233 0.0 3.0 0.00 0.00 0.00 31 1002.8
20260904043545 74 223 0.0 4.0 0.00 0.00 0.00 31 1002.8
20260904043046 73 232 0.0 7.0 0.00 0.00 0.00 30 1002.8
20260904042544 73 210 0.0 0.0 0.00 0.00 0.00 30 1002.9
20260904042044 73 210 0.0 0.0 0.00 0.00 0.00 30 1003.0
20260904041548 73 207 0.0 0.0 0.00 0.00 0.00 29 1003.0
20260904041044 73 207 0.0 0.0 0.00 0.00 0.00 29 1003.2
20260904040544 73 207 0.0 0.0 0.00 0.00 0.00 29 1003.2
20260904040044 74 206 0.0 0.0 0.00 0.00 0.00 28 1003.0
20260904035544 74 207 0.0 0.0 0.00 0.00 0.00 28 1002.9
20260904035043 74 207 0.0 0.0 0.00 0.00 0.00 28 1002.9
20260904034644 74 207 0.0 0.0 0.00 0.00 0.00 28 1002.8
20260904034043 74 207 0.0 0.0 0.00 0.00 0.00 28 1002.8
20260904033544 74 208 0.0 0.0 0.00 0.00 0.00 28 1002.7
20260904033043 74 211 0.0 0.0 0.00 0.00 0.00 28 1002.5
20260904032546 74 212 0.0 0.0 0.00 0.00 0.00 28 1002.3
20260904032042 75 221 0.0 0.0 0.00 0.00 0.00 28 1002.3
20260904031544 75 223 0.0 0.0 0.00 0.00 0.00 28 1002.2
20260904031042 75 220 0.0 0.0 0.00 0.00 0.00 27 1002.2
20260904030542 75 222 0.0 1.0 0.00 0.00 0.00 27 1002.1
20260904030042 75 236 0.0 10.0 0.00 0.00 0.00 27 1002.1
20260904025542 76 237 0.0 10.0 0.00 0.00 0.00 27 1002.1
20260904025040 77 234 0.0 8.0 0.00 0.00 0.00 26 1002.0
20260904024546 77 214 0.0 4.0 0.00 0.00 0.00 26 1001.9
20260904024040 77 191 0.0 0.0 0.00 0.00 0.00 25 1001.9
20260904023543 78 150 0.0 11.0 0.00 0.00 0.00 25 1001.7
20260904023043 78 151 0.0 11.0 0.00 0.00 0.00 24 1001.6
20260904022540 78 151 0.0 9.0 0.00 0.00 0.00 25 1001.6
20260904022041 78 153 0.0 12.0 0.00 0.00 0.00 24 1001.5
20260904021541 78 146 4.0 12.0 0.00 0.00 0.00 24 1001.3
20260904021040 78 147 1.0 11.0 0.00 0.00 0.00 24 1001.3
20260904020540 79 150 2.0 11.0 0.00 0.00 0.00 24 1001.3
20260904020046 79 148 2.0 11.0 0.00 0.00 0.00 23 1001.2
20260904015539 79 149 3.0 11.0 0.00 0.00 0.00 23 1001.1
20260904015040 80 160 1.0 6.0 0.00 0.00 0.00 23 1001.0
20260904014540 80 160 0.0 6.0 0.00 0.00 0.00 23 1000.9
20260904014039 80 161 0.0 15.0 0.00 0.00 0.00 22 1000.8
20260904013541 81 146 4.0 15.0 0.00 0.00 0.00 22 1000.7
20260904013039 81 163 0.0 11.0 0.00 0.00 0.00 22 1000.8
20260904012538 81 153 2.0 11.0 0.00 0.00 0.00 22 1000.7
20260904012043 82 159 0.0 6.0 0.00 0.00 0.00 21 1000.6
20260904011538 82 167 0.0 10.0 0.00 0.00 0.00 21 1000.7
20260904011038 82 162 1.0 10.0 0.00 0.00 0.00 21 1000.5
20260904010538 82 188 0.0 18.0 0.00 0.00 0.00 21 1000.6
20260904010043 83 156 3.0 18.0 0.00 0.00 0.00 21 1000.6
20260904005537 83 168 0.0 6.0 0.00 0.00 0.00 21 1000.5
20260904005037 83 161 0.0 5.0 0.00 0.00 0.00 21 1000.5
20260904004539 84 152 1.0 11.0 0.00 0.00 0.00 21 1000.5
20260904004036 84 160 1.0 11.0 0.00 0.00 0.00 20 1000.5
20260904003540 84 187 0.0 11.0 0.00 0.00 0.00 20 1000.6
20260904003037 84 149 2.0 11.0 0.00 0.00 0.00 19 1000.5
20260904002536 85 151 3.0 13.0 0.00 0.00 0.00 19 1000.6
20260904002036 85 152 3.0 13.0 0.00 0.00 0.00 18 1000.7
20260904001536 85 150 3.0 10.0 0.00 0.00 0.00 17 1000.6
20260904001036 85 177 0.0 2.0 0.00 0.00 0.00 17 1000.5
20260904000536 85 233 0.0 2.0 0.00 0.00 0.00 16 1000.5
20260904000035 85 211 0.0 2.0 0.00 0.00 0.00 16 1000.5
20260903235535 85 210 0.0 6.0 0.00 0.00 0.00 16 1000.5
20260903235038 85 237 0.0 6.0 0.00 0.00 0.00 15 1000.5
20260903234534 85 237 0.0 4.0 0.00 0.00 0.00 17 1000.5
20260903234033 85 152 0.0 0.0 0.00 0.00 0.00 21 1000.6
20260903233535 85 152 0.0 0.0 0.00 0.00 0.00 19 1000.5
20260903233035 85 152 0.0 2.0 0.00 0.00 0.00 20 1000.7
20260903232530 85 152 0.0 2.0 0.00 0.00 0.00 18 1000.7
20260903232031 85 145 0.0 0.0 0.00 0.00 0.00 21 1000.8
20260903231530 85 145 0.0 8.0 0.00 0.00 0.00 20 1000.6
20260903231029 86 145 0.0 13.0 0.00 0.00 0.00 18 1000.7
20260903230529 86 145 7.0 14.0 0.00 0.00 0.00 19 1000.7
20260903230037 86 150 5.0 14.0 0.00 0.00 0.00 19 1000.9
20260903225529 86 162 0.0 13.0 0.00 0.00 0.00 20 1001.0
20260903225028 86 135 4.0 13.0 0.00 0.00 0.00 20 1001.0
20260903224528 86 150 3.0 10.0 0.00 0.00 0.00 21 1001.1